This demonstration page uses our WeatherBlox Daily Observations layout. Learn more.

39.92423, -83.80882

Hourly Observations for December 5, 2017

Temp ( °F °C ) Dew Point ( °F °C ) Humidity (%) Winds ( mph kmh ) Pressure ( in mb ) Visibility ( mi km ) Precip ( " mm )
12:56 am 00:56 Mostly Cloudy 53 11.7 47 8.3 80 80 S 14 22 29.86 1011 10 16.0934 0 0.0254
1:56 am 01:56 Mostly Cloudy 55 12.8 46 7.8 72 72 S 17 28 29.83 1010 10 16.0934 0 0
2:56 am 02:56 Cloudy with Heavy Rain 53 11.7 48 8.9 83 83 SSW 13 20 29.84 1011 7 11.26538 0.1 2.54
3:04 am 03:04 Cloudy with Thunderstorms 54 12 48 9 82 82 S 12 19 29.83 1010 6 9.65604 0.05 1.27
3:30 am 03:30 Cloudy with Light Rain 54 12 48 9 82 82 SSW 17 28 29.85 1011 10 16.0934 0.07 1.778
3:48 am 03:48 Cloudy with Nearby Thunderstorms 52 11 48 9 88 88 SSW 15 24 29.88 1012 10 16.0934 0.1 2.54
3:56 am 03:56 Cloudy with Nearby Thunderstorms 52 11.1 49 9.4 89 89 SSW 20 31 29.87 1012 7 11.26538 0.14 3.556
4:03 am 04:03 Cloudy with Rain 52 11 48 9 88 88 SSW 15 24 29.88 1012 8 12.87472 0.02 0.508
4:56 am 04:56 Cloudy with Rain 51 10.6 49 9.4 92 92 SSW 15 24 29.86 1011 8 12.87472 0.08 2.032
5:15 am 05:15 Cloudy with Light Rain 52 11 48 9 88 88 SSW 15 24 29.85 1011 7 11.26538 0.01 0.254
5:37 am 05:37 Cloudy with Rain 52 11 50 10 94 94 SSW 17 28 29.85 1011 7 11.26538 0.06 1.524
5:56 am 05:56 Cloudy with Light Rain 52 11.1 50 10 93 93 SSW 15 24 29.86 1011 7 11.26538 0.08 2.032
6:56 am 06:56 Cloudy 53 11.7 51 10.6 93 93 SW 16 26 29.87 1012 9 14.48406 0.01 0.254
7:56 am 07:56 Cloudy 53 11.7 52 11.1 96 96 WSW 16 26 29.88 1012 10 16.0934 0 0.0254
8:09 am 08:09 Cloudy 52 11 48 9 88 88 W 20 31 29.88 1012 10 16.0934 0 0
8:25 am 08:25 Cloudy 50 10 46 8 88 88 W 17 28 29.91 1013 10 16.0934 0 0
8:56 am 08:56 Cloudy 48 8.9 44 6.7 86 86 WNW 14 22 29.91 1013 10 16.0934 0 0
9:22 am 09:22 Cloudy 46 8 43 6 87 87 WNW 18 30 29.94 1014 10 16.0934 0 0
9:56 am 09:56 Cloudy 46 7.8 42 5.6 86 86 WNW 10 17 29.93 1014 10 16.0934 0 0
10:56 am 10:56 Cloudy 43 6.1 37 2.8 80 80 W 20 31 29.97 1015 10 16.0934 0 0
11:17 am 11:17 Mostly Sunny 43 6 36 2 76 76 W 17 28 29.97 1015 10 16.0934 0 0
11:56 am 11:56 Sunny 43 6.1 36 2.2 76 76 W 16 26 29.95 1014 10 16.0934 0 0
12:56 pm 12:56 Mostly Sunny 42 5.6 35 1.7 76 76 W 15 24 29.94 1014 10 16.0934 0 0
1:56 pm 13:56 Mostly Sunny 41 5 35 1.7 79 79 W 17 28 29.93 1014 10 16.0934 0 0
2:31 pm 14:31 Cloudy 39 4 32 0 75 75 W 24 39 29.94 1014 10 16.0934 0 0
2:39 pm 14:39 Cloudy 39 4 32 0 75 75 W 25 41 29.97 1015 10 16.0934 0 0
2:56 pm 14:56 Cloudy 38 3.3 31 -0.6 76 76 W 26 43 29.96 1014 10 16.0934 0 0
3:28 pm 15:28 Cloudy 37 3 30 -1 75 75 W 17 28 30 1016 10 16.0934 0 0
3:42 pm 15:42 Mostly Cloudy 37 3 28 -2 70 70 W 23 37 30 1016 10 16.0934 0 0
3:56 pm 15:56 Mostly Cloudy 37 2.8 28 -2.2 70 70 W 21 33 29.98 1015 10 16.0934 0 0
4:56 pm 16:56 Sunny 35 1.7 20 -6.7 54 54 W 21 33 30.02 1017 10 16.0934 0 0
5:56 pm 17:56 Clear 34 1.1 20 -6.7 56 56 W 18 30 30.04 1017 10 16.0934 0 0
6:56 pm 18:56 Clear 32 0 20 -6.7 61 61 W 18 30 30.06 1018 10 16.0934 0 0
7:56 pm 19:56 Clear 31 -0.6 22 -5.6 69 69 WSW 12 19 30.09 1019 10 16.0934 0 0
8:56 pm 20:56 Clear 30 -1.1 22 -5.6 72 72 WSW 10 17 30.11 1020 10 16.0934 0 0
9:56 pm 21:56 Clear 30 -1.1 21 -6.1 69 69 WSW 13 20 30.11 1020 10 16.0934 0 0
10:56 pm 22:56 Clear 30 -1.1 22 -5.6 72 72 WSW 14 22 30.12 1020 10 16.0934 0 0
11:56 pm 23:56 Clear 30 -1.1 22 -5.6 72 72 WSW 13 20 30.14 1021 10 16.0934 0 0

Powered by AerisWeather